Location: Lane
(33.5226°N, 79.8788°W)
Time: 08:23:32
(UTC+00:00)

Explorer 7 - Pass Details

Date: 07 October 2022
Orbit: 481 x 665 km, 50.3° (Epoch: 28 November)

Event Time Altitude Azimuth Distance (km) Brightness Sun altitude
Rises 19:49:36 0° 318° (NW) 2,959 10.6 35.1°
Maximum altitude 19:56:20 30° 31° (NNE) 1,102 8.2 34.0°
Drops below altitude 10° 20:00:15 10° 94° (E) 1,920 9.3 33.3°
Sets 20:02:40 0° 105° (ESE) 2,783 10.1 32.9°
